[[{"header":{"parameterUnit":"m.s-1","parameterCategory":2,"la1":30.2991,"la2":30.254,"lo1":-89.0895,"lo2":-89.0444,"dy":0.0017,"dx":0.0017,"nx":28,"ny":28,"refTime":"2024-02-04T09:00:00:Z","depth":"0","parameterNumber":2,"parameterNumberName":"U-component_of_CURRENTS"},"data":[0,0,0,0,0,0,0,0,0,0,0,0,0,0,0,0,0,0,0,0,0,0,0,0,0,0,0,0,0,0,0,0,0,0,0,0,0,0,0,0,0,0,0,0,0,0,0,0,0,0,0,0,0,0,0,0,0,0,0.2683,0.2684,0,0.2713,0.2713,0.2713,0.2707,0.2707,0.2707,0.2707,0.2695,0.2695,0.2694,0,0,0,0,0,0,0,0,0,0,0,0,0,0.2619,0.262,0.2683,0.2684,0.2685,0.2713,0.2713,0.2713,0.2707,0.2707,0.2707,0.2707,0.2695,0.2695,0.2694,0,0,0,0,0,0,0,0,0,0,0,0,0,0.2644,0.262,0.2683,0.2688,0.2689,0.2713,0.2713,0.2713,0.2707,0.2707,0.2707,0.2707,0.2695,0.2695,0.2694,0.2699,0,0,0.2694,0.2694,0,0,0,0,0,0,0,0,0.2643,0.2646,0.2686,0.2688,0.2689,0.2709,0.2686,0.2708,0.2708,0.2697,0.2707,0.2706,0.2698,0.2698,0.27,0.2699,0.2698,0.2694,0.2694,0.2694,0.2694,0,0,0,0,0,0,0,0.2641,0.2645,0.2691,0.2687,0.2689,0.2688,0.2691,0.269,0.2695,0.2698,0.2698,0.2707,0.2698,0.27,0.2699,0.2698,0.2694,0.2694,0.2694,0.2694,0.2738,0.2739,0,0,0,0,0,0,0.2645,0.2644,0.269,0.2693,0.2669,0.2689,0.2692,0.27,0.2696,0.2697,0.2707,0.2707,0.27,0.2699,0.2699,0.2738,0.2694,0.2693,0.2693,0.2737,0.2738,0.2739,0,0,0,0,0,0,0.2644,0.2649,0.2689,0.2671,0.2677,0.2691,0.27,0.2701,0.2708,0.2705,0.2704,0.2714,0.27,0.2699,0.2711,0.2736,0.2693,0.2693,0.2735,0.2737,0.2739,0.2794,0,0,0,0,0,0,0.2642,0.2648,0.2654,0.2672,0.2678,0.2713,0.27,0.2702,0.2716,0.2715,0.271,0.2709,0.27,0.2711,0.2711,0.2735,0.2693,0.2733,0.2736,0.2738,0.2791,0.2798,0.2804,0,0,0,0,0,0.2639,0.2649,0.2654,0.266,0.2686,0.2714,0.2717,0.2723,0.2716,0.2726,0.2725,0.2709,0.2726,0.2712,0.2711,0.2736,0.2732,0.2735,0.2738,0.2788,0.2796,0.2804,0,0,0,0,0,0,0.2618,0.2651,0.2656,0.2673,0.2697,0.2714,0.2725,0.2728,0.2735,0.2733,0.2722,0.2721,0.2746,0.2732,0.2717,0.2757,0.2728,0.2731,0.2766,0.2774,0.2781,0.28,0.2693,0,0,0,0,0,0.2619,0.2639,0.2666,0.2682,0.2695,0.271,0.2722,0.273,0.274,0.2743,0.2741,0.2743,0.2757,0.2757,0.2766,0.278,0.2794,0.2797,0.2803,0.2809,0.2825,0.287,0.2882,0.2749,0.2749,0.2749,0,0,0.2614,0.2637,0.2646,0.268,0.2696,0.2722,0.2716,0.274,0.2762,0.274,0.2763,0.2768,0.2769,0.2794,0.2803,0.2783,0.2855,0.2813,0.2817,0.2831,0.2874,0.2887,0.2899,0.2751,0.2751,0.275,0,0,0.2621,0.2637,0.2657,0.2682,0.2718,0.2732,0.2742,0.2767,0.2779,0.2802,0.2801,0.2824,0.2827,0.2845,0.2851,0.2897,0.2895,0.2896,0.2937,0.298,0.2991,0.3002,0.3041,0.3054,0.2891,0.2891,0.2891,0,0.2612,0.2644,0.2667,0.2696,0.272,0.2739,0.2766,0.2786,0.2811,0.2832,0.2815,0.2862,0.2857,0.2907,0.2925,0.2914,0.2936,0.2905,0.2989,0.3,0.3009,0.3047,0.3061,0.2894,0.2894,0.2894,0.2893,0,0.2636,0.2664,0.268,0.2725,0.2752,0.2781,0.2816,0.2847,0.2859,0.2878,0.2929,0.2933,0.2963,0.2966,0.2958,0.3028,0.3022,0.2999,0.297,0.3026,0.3062,0.3076,0.2899,0.2898,0.2897,0.2896,0,0,0.2605,0.2682,0.2686,0.2713,0.2771,0.2792,0.2848,0.2902,0.2941,0.2965,0.3018,0.3047,0.3055,0.3065,0.3064,0.3096,0.3179,0.3079,0.308,0.312,0.3282,0.328,0.3295,0.3172,0.3174,0.3176,0.3281,0,0.2615,0.267,0.271,0.2759,0.2789,0.2841,0.2888,0.294,0.2982,0.3037,0.3068,0.3109,0.309,0.3109,0.3146,0.3177,0.3218,0.3154,0.322,0.3223,0.3216,0.3311,0.3243,0.3331,0.3294,0.3297,0.3298,0,0.262,0.266,0.2708,0.2783,0.28,0.2834,0.2921,0.2969,0.3062,0.3094,0.3156,0.318,0.3253,0.3214,0.3312,0.3274,0.3292,0.3304,0.3308,0.3299,0.3247,0.3268,0.3357,0.3303,0.3319,0.3317,0.3316,0,0.2577,0.2654,0.2691,0.2716,0.2803,0.2842,0.2893,0.2985,0.3043,0.3138,0.3192,0.3265,0.3317,0.3359,0.3401,0.3364,0.3502,0.3445,0.3463,0.3463,0.3415,0.3406,0.3462,0.3519,0.3519,0.3518,0.3518,0,0.2568,0.2595,0.2674,0.2693,0.2744,0.2816,0.2884,0.2953,0.3066,0.3138,0.3216,0.3296,0.3358,0.3442,0.3452,0.3524,0.3548,0.3508,0.3505,0.3432,0.3424,0.3381,0.3334,0.3522,0.3521,0.3521,0.352,0,0.2511,0.2567,0.2609,0.2696,0.2725,0.2758,0.2877,0.2928,0.3047,0.3155,0.3193,0.3348,0.3465,0.3529,0.3611,0.3599,0.3568,0.3657,0.3572,0.3558,0.3499,0.3458,0.3374,0.3265,0.3696,0.3697,0.3698,0,0.2489,0.2505,0.2586,0.261,0.265,0.2717,0.2764,0.2894,0.2958,0.3181,0.3226,0.3406,0.3509,0.3662,0.3691,0.3744,0.3613,0.3682,0.3594,0.3526,0.3478,0.331,0.321,0.3552,0.3552,0.3551,0.3551,0,0.2438,0.2464,0.2495,0.2546,0.2591,0.265,0.2735,0.2784,0.2944,0.3065,0.3233,0.3353,0.3555,0.3612,0.3711,0.3721,0.3533,0.3673,0.3628,0.341,0.3206,0.309,0.3449,0.3547,0.3547,0.3548,0.3548,0.3548,0.2386,0.2389,0.2428,0.247,0.2515,0.2562,0.2579,0.2686,0.2795,0.2944,0.3133,0.3283,0.3488,0.3642,0.3625,0.3608,0.3523,0.3523,0.3494,0.334,0.3189,0.3549,0.3623,0.3624,0.3625,0.3625,0.3626,0,0.2307,0.2323,0.2355,0.2387,0.239,0.2463,0.2533,0.2538,0.261,0.2821,0.2962,0.3211,0.3329,0.3457,0.357,0.3464,0.3255,0.337,0.3123,0.3042,0.3413,0.3363,0.3355,0.3355,0.3355,0.3355,0.3355,0.3355,0.2266,0.2254,0.2273,0.2249,0.2272,0.225,0.2268,0.2311,0.2431,0.2593,0.2759,0.2934,0.3281,0.3504,0.349,0.3387,0.3095,0.2977,0.2907,0.3208,0.3219,0.3229,0.3174,0.3125,0.3125,0.2425,0.242,0.2416]},{"header":{"parameterUnit":"m.s-1","parameterCategory":2,"la1":30.2991,"la2":30.254,"lo1":-89.0895,"lo2":-89.0444,"dy":0.0017,"dx":0.0017,"nx":28,"ny":28,"refTime":"2024-02-04T09:00:00:Z","depth":"0","parameterNumber":3,"parameterNumberName":"V-component_of_CURRENTS"},"data":[0,0,0,0,0,0,0,0,0,0,0,0,0,0,0,0,0,0,0,0,0,0,0,0,0,0,0,0,0,0,0,0,0,0,0,0,0,0,0,0,0,0,0,0,0,0,0,0,0,0,0,0,0,0,0,0,0,0,-0.0188,-0.0189,0,-0.0238,-0.0239,-0.024,-0.0279,-0.0279,-0.0279,-0.028,-0.0348,-0.035,-0.0351,0,0,0,0,0,0,0,0,0,0,0,0,0,-0.0178,-0.0178,-0.0188,-0.0189,-0.0189,-0.0238,-0.0239,-0.024,-0.0279,-0.0279,-0.0279,-0.028,-0.0348,-0.035,-0.0351,0,0,0,0,0,0,0,0,0,0,0,0,0,-0.0202,-0.0178,-0.0188,-0.0214,-0.0216,-0.0238,-0.0239,-0.024,-0.0279,-0.0279,-0.0279,-0.028,-0.0347,-0.0349,-0.0352,-0.0358,0,0,-0.0359,-0.036,0,0,0,0,0,0,0,0,-0.02,-0.0202,-0.0209,-0.0212,-0.0215,-0.0252,-0.0261,-0.028,-0.0279,-0.0256,-0.028,-0.028,-0.0317,-0.0321,-0.0331,-0.0362,-0.0365,-0.0359,-0.0361,-0.0362,-0.0362,0,0,0,0,0,0,0,-0.0198,-0.0201,-0.0209,-0.021,-0.0213,-0.024,-0.0244,-0.0265,-0.0285,-0.0258,-0.0261,-0.0264,-0.0318,-0.0329,-0.0333,-0.0366,-0.0359,-0.0361,-0.0363,-0.0364,-0.0415,-0.0415,0,0,0,0,0,0,-0.0187,-0.0199,-0.0208,-0.0211,-0.0207,-0.024,-0.0244,-0.0241,-0.0284,-0.0291,-0.0264,-0.0266,-0.0325,-0.0331,-0.0336,-0.0344,-0.0362,-0.0364,-0.0365,-0.0415,-0.0415,-0.0415,0,0,0,0,0,0,-0.0186,-0.0187,-0.0206,-0.0205,-0.021,-0.0239,-0.0235,-0.0241,-0.025,-0.0288,-0.0296,-0.0267,-0.0325,-0.0333,-0.0353,-0.0347,-0.0365,-0.0367,-0.0415,-0.0415,-0.0415,-0.0363,0,0,0,0,0,0,-0.0185,-0.0186,-0.0181,-0.0204,-0.0209,-0.0211,-0.0235,-0.0242,-0.0251,-0.0254,-0.0293,-0.03,-0.0326,-0.0349,-0.0355,-0.0351,-0.0369,-0.0415,-0.0415,-0.0415,-0.0364,-0.0361,-0.0358,0,0,0,0,0,-0.0185,-0.0169,-0.018,-0.0181,-0.02,-0.021,-0.0215,-0.0239,-0.0251,-0.025,-0.0279,-0.0299,-0.0353,-0.0351,-0.0358,-0.0354,-0.0415,-0.0415,-0.0415,-0.0366,-0.0362,-0.0358,0,0,0,0,0,0,-0.0158,-0.0172,-0.0185,-0.0173,-0.0189,-0.0216,-0.0216,-0.0234,-0.0256,-0.0257,-0.0297,-0.0306,-0.0323,-0.0345,-0.0342,-0.037,-0.0388,-0.0389,-0.0348,-0.0344,-0.0341,-0.0318,-0.0371,0,0,0,0,0,-0.015,-0.0144,-0.0165,-0.0156,-0.0161,-0.0189,-0.0196,-0.021,-0.0232,-0.0242,-0.0271,-0.0301,-0.0328,-0.0341,-0.0366,-0.0378,-0.0402,-0.0382,-0.0378,-0.0375,-0.0362,-0.0404,-0.0403,-0.0414,-0.0414,-0.0414,0,0,-0.0137,-0.0144,-0.0141,-0.0151,-0.0165,-0.0161,-0.0194,-0.0196,-0.0194,-0.0246,-0.0252,-0.0289,-0.0329,-0.0345,-0.0354,-0.0363,-0.0383,-0.0375,-0.0372,-0.036,-0.0403,-0.0402,-0.0401,-0.0414,-0.0414,-0.0414,0,0,-0.0102,-0.0114,-0.0097,-0.0106,-0.0119,-0.0137,-0.0135,-0.0158,-0.017,-0.0184,-0.0222,-0.0254,-0.029,-0.032,-0.034,-0.0333,-0.0364,-0.0341,-0.0304,-0.0345,-0.0344,-0.0343,-0.0364,-0.0365,-0.0339,-0.0339,-0.0339,0,-0.0086,-0.0068,-0.0094,-0.008,-0.0082,-0.0121,-0.0104,-0.012,-0.0148,-0.0155,-0.0177,-0.0239,-0.0279,-0.03,-0.0302,-0.0324,-0.0344,-0.0315,-0.0339,-0.034,-0.034,-0.0361,-0.0364,-0.0336,-0.0336,-0.0337,-0.0337,0,-0.0042,-0.0028,-0.0017,-0.0014,-0.0022,-0.0012,-0.0038,-0.0042,-0.0067,-0.0093,-0.0121,-0.018,-0.0215,-0.0239,-0.0269,-0.0289,-0.03,-0.033,-0.0346,-0.0335,-0.0358,-0.0362,-0.0333,-0.0333,-0.0334,-0.0335,0,0,0.0005,0.0014,0.0019,0.0033,0.0015,0.0019,0.0023,0.0014,0.0025,-0.0026,-0.0024,-0.0094,-0.0133,-0.0157,-0.0205,-0.0245,-0.0274,-0.0282,-0.0285,-0.0294,-0.0346,-0.0353,-0.0357,-0.0309,-0.0309,-0.031,-0.0358,0,0.005,0.0096,0.008,0.0118,0.0139,0.0107,0.0121,0.0105,0.0072,0.0064,-0.0009,-0.0033,-0.0099,-0.0115,-0.0166,-0.0243,-0.0282,-0.0257,-0.0361,-0.0364,-0.0366,-0.0362,-0.0338,-0.0379,-0.0362,-0.0362,-0.0363,0,0.0103,0.0127,0.0174,0.0199,0.0206,0.022,0.0231,0.0234,0.0203,0.0177,0.0127,0.007,0.0008,-0.0053,-0.0177,-0.0156,-0.0241,-0.0309,-0.0313,-0.0337,-0.0377,-0.039,-0.0387,-0.0567,-0.0369,-0.0369,-0.0368,0,0.0159,0.0195,0.0235,0.0241,0.026,0.0282,0.029,0.0273,0.0291,0.0246,0.025,0.0154,0.0124,-0.0002,-0.0143,-0.016,-0.0276,-0.0322,-0.0406,-0.0407,-0.0415,-0.0416,-0.0592,-0.041,-0.041,-0.0409,-0.0409,0,0.0216,0.0253,0.0271,0.0297,0.0364,0.0345,0.0401,0.0394,0.0393,0.0429,0.0314,0.0326,0.0135,0.0045,-0.0104,-0.0253,-0.0249,-0.039,-0.0421,-0.0396,-0.0394,-0.0575,-0.0684,-0.0411,-0.0411,-0.041,-0.041,0,0.0275,0.0283,0.0339,0.0375,0.0395,0.0441,0.0491,0.0529,0.0512,0.0557,0.0552,0.046,0.0345,0.0155,-0.0039,-0.0183,-0.0444,-0.0398,-0.0343,-0.0367,-0.062,-0.0726,-0.0931,-0.1009,-0.0499,-0.05,-0.05,0,0.0309,0.0345,0.0405,0.0449,0.0471,0.0534,0.0588,0.0594,0.0639,0.0654,0.0692,0.0596,0.0561,0.027,-0.001,-0.0264,-0.045,-0.042,-0.0461,-0.0625,-0.0767,-0.0851,-0.0908,-0.045,-0.045,-0.045,-0.045,0,0.0377,0.0396,0.0445,0.054,0.0604,0.0678,0.0755,0.0816,0.0839,0.0891,0.0943,0.0919,0.0642,0.0401,0.0035,-0.0163,-0.0551,-0.0427,-0.0621,-0.076,-0.084,-0.093,-0.0419,-0.045,-0.045,-0.045,-0.045,-0.045,0.0429,0.0479,0.0545,0.0639,0.0718,0.0821,0.0905,0.099,0.11,0.1201,0.1156,0.1176,0.0789,0.0296,-0.0007,-0.0541,-0.0565,-0.0697,-0.0813,-0.0884,-0.0963,-0.0439,-0.0494,-0.0494,-0.0494,-0.0494,-0.0495,0,0.0495,0.0551,0.064,0.0753,0.0859,0.0881,0.1019,0.1114,0.1272,0.1373,0.1432,0.1287,0.0802,0.029,-0.0427,-0.0832,-0.0995,-0.107,-0.1198,-0.1238,-0.0787,-0.0788,-0.088,-0.0879,-0.0879,-0.0879,-0.0879,-0.0879,0.0529,0.0627,0.0676,0.086,0.0942,0.1088,0.1176,0.132,0.1434,0.1589,0.1639,0.1624,0.1254,-0.0086,-0.1021,-0.1253,-0.1531,-0.1607,-0.1759,-0.1468,-0.1442,-0.1418,-0.1445,-0.1673,-0.1674,-0.2141,-0.2146,-0.2149]}],[{"header":{"parameterUnit":"m.s-1","parameterCategory":2,"la1":30.2991,"la2":30.254,"lo1":-89.0895,"lo2":-89.0444,"dy":0.0017,"dx":0.0017,"nx":28,"ny":28,"refTime":"2024-02-04T09:00:00:Z","depth":"2","parameterNumber":2,"parameterNumberName":"U-component_of_CURRENTS"},"data":[0,0,0,0,0,0,0,0,0,0,0,0,0,0,0,0,0,0,0,0,0,0,0,0,0,0,0,0,0,0,0,0,0,0,0,0,0,0,0,0,0,0,0,0,0,0,0,0,0,0,0,0,0,0,0,0,0,0,0.2436,0.2437,0,0.2474,0.2474,0.2474,0.248,0.248,0.248,0.2479,0.2482,0.2482,0.2483,0,0,0,0,0,0,0,0,0,0,0,0,0,0.2366,0.2367,0.2436,0.2437,0.2438,0.2474,0.2474,0.2474,0.248,0.248,0.248,0.2479,0.2482,0.2482,0.2483,0,0,0,0,0,0,0,0,0,0,0,0,0,0.2396,0.2367,0.2436,0.2447,0.2449,0.2474,0.2474,0.2474,0.248,0.248,0.248,0.2479,0.2482,0.2482,0.2483,0.2486,0,0,0.2483,0.2483,0,0,0,0,0,0,0,0,0.2395,0.2399,0.2445,0.2446,0.2448,0.2475,0.245,0.2477,0.248,0.2465,0.2479,0.2479,0.2479,0.2479,0.2482,0.2486,0.2486,0.2483,0.2483,0.2483,0.2483,0,0,0,0,0,0,0,0.2393,0.2397,0.2448,0.2446,0.2448,0.2449,0.2453,0.2455,0.2469,0.2466,0.2467,0.2476,0.2479,0.2482,0.2482,0.2486,0.2483,0.2483,0.2483,0.2484,0.2538,0.2539,0,0,0,0,0,0,0.2395,0.2395,0.2447,0.2449,0.2424,0.2451,0.2455,0.2464,0.2469,0.2471,0.2476,0.2476,0.2482,0.2482,0.2483,0.2528,0.2483,0.2484,0.2484,0.2536,0.2538,0.2539,0,0,0,0,0,0,0.2393,0.2399,0.2445,0.2425,0.2432,0.2452,0.2462,0.2465,0.2479,0.2478,0.2479,0.2489,0.2482,0.2482,0.25,0.2527,0.2484,0.2484,0.2535,0.2537,0.2539,0.2593,0,0,0,0,0,0,0.2391,0.2398,0.2406,0.2426,0.2433,0.2471,0.2463,0.2466,0.2485,0.2486,0.2489,0.2489,0.2482,0.25,0.2501,0.2526,0.2484,0.2533,0.2536,0.2538,0.2589,0.2596,0.2602,0,0,0,0,0,0.2388,0.24,0.2407,0.2413,0.2444,0.2472,0.2476,0.2487,0.2486,0.2498,0.2503,0.2489,0.2516,0.2501,0.2502,0.2528,0.2532,0.2535,0.2538,0.2586,0.2595,0.2602,0,0,0,0,0,0,0.2369,0.2403,0.241,0.243,0.2455,0.2474,0.2489,0.2495,0.2508,0.251,0.2503,0.2504,0.2533,0.2522,0.2506,0.2552,0.2523,0.2526,0.256,0.2568,0.2574,0.2589,0.2484,0,0,0,0,0,0.2371,0.2393,0.2421,0.2439,0.2453,0.2472,0.2486,0.2497,0.2511,0.2517,0.2521,0.2528,0.2545,0.2549,0.2559,0.2578,0.2589,0.2596,0.2603,0.2608,0.2622,0.2661,0.2673,0.2549,0.2549,0.2549,0,0,0.2368,0.2391,0.2402,0.2437,0.2457,0.2482,0.248,0.2508,0.2531,0.2515,0.2544,0.2553,0.2557,0.2585,0.2597,0.2578,0.2651,0.2612,0.2617,0.2627,0.2666,0.2678,0.2689,0.2551,0.2551,0.255,0,0,0.2376,0.2396,0.2417,0.2443,0.2481,0.2496,0.2508,0.2536,0.2551,0.2579,0.2582,0.2608,0.2619,0.2636,0.2643,0.2691,0.2689,0.2693,0.2733,0.2771,0.2782,0.2791,0.2827,0.2839,0.2691,0.2691,0.2691,0,0.237,0.2402,0.2427,0.2457,0.2481,0.2505,0.2532,0.2554,0.2584,0.2606,0.2595,0.2647,0.2647,0.2695,0.2715,0.2707,0.2728,0.2701,0.278,0.279,0.2799,0.2833,0.2846,0.2694,0.2693,0.2693,0.2693,0,0.2394,0.2423,0.2441,0.2486,0.2514,0.2544,0.258,0.2612,0.2631,0.2652,0.2706,0.2714,0.2748,0.2753,0.2748,0.2815,0.2811,0.2788,0.276,0.2814,0.2847,0.286,0.2698,0.2697,0.2696,0.2695,0,0,0.2367,0.2442,0.2447,0.2474,0.2534,0.2555,0.2611,0.2664,0.2703,0.2733,0.2786,0.282,0.2833,0.2844,0.2847,0.2877,0.2956,0.2863,0.2864,0.29,0.3049,0.3031,0.3042,0.2949,0.2952,0.2953,0.3049,0,0.2378,0.243,0.247,0.2519,0.2548,0.26,0.2646,0.2699,0.2744,0.28,0.2834,0.2878,0.2865,0.2888,0.2922,0.2953,0.299,0.2932,0.2992,0.2994,0.2971,0.3057,0.2835,0.2901,0.3061,0.3063,0.3065,0,0.2383,0.242,0.2469,0.254,0.2558,0.2594,0.2679,0.2726,0.2817,0.2853,0.2917,0.2945,0.3017,0.2983,0.3074,0.3041,0.3058,0.3069,0.3073,0.3046,0.2998,0.2872,0.2917,0.3085,0.3084,0.3082,0.3081,0,0.2342,0.2416,0.2453,0.2478,0.2562,0.2603,0.2654,0.2744,0.2801,0.2898,0.2953,0.3025,0.3078,0.3116,0.3159,0.3125,0.3249,0.3198,0.3199,0.3197,0.3016,0.2995,0.3263,0.3263,0.3263,0.3263,0.3262,0,0.2332,0.2361,0.2438,0.2459,0.251,0.2581,0.265,0.2718,0.2828,0.2897,0.2979,0.3052,0.3116,0.3193,0.3203,0.326,0.3291,0.3236,0.3232,0.3029,0.3009,0.3166,0.3153,0.3266,0.3265,0.3265,0.3264,0,0.228,0.2334,0.2377,0.2463,0.2494,0.253,0.265,0.2698,0.2816,0.2917,0.2957,0.3104,0.3208,0.3268,0.3343,0.3325,0.3365,0.3368,0.3132,0.31,0.3272,0.3261,0.3383,0.3383,0.3383,0.3384,0.3384,0,0.2259,0.2277,0.236,0.2386,0.2428,0.2498,0.2544,0.2672,0.2731,0.2939,0.2979,0.3144,0.3225,0.3359,0.3369,0.3408,0.3415,0.32,0.3095,0.3307,0.329,0.3279,0.3268,0.2873,0.2869,0.2866,0.2864,0,0.2212,0.2243,0.2274,0.2328,0.2376,0.2431,0.2515,0.256,0.2711,0.2819,0.2966,0.3065,0.3227,0.3188,0.3263,0.3242,0.3177,0.3138,0.3429,0.2886,0.2837,0.2817,0.2821,0.2835,0.2838,0.284,0.2841,0.2842,0.2167,0.2171,0.2213,0.2258,0.2305,0.2344,0.2359,0.2457,0.2552,0.2676,0.284,0.2913,0.2993,0.3011,0.2948,0.2907,0.311,0.2952,0.2957,0.2967,0.2899,0.2854,0.2843,0.2846,0.2848,0.285,0.2852,0,0.2095,0.2111,0.2144,0.2179,0.2182,0.2255,0.2314,0.2306,0.2363,0.252,0.263,0.2503,0.2532,0.2592,0.2514,0.2543,0.2464,0.242,0.2284,0.2319,0.2349,0.2242,0.2015,0.2012,0.2008,0.2005,0,0,0.2055,0.2045,0.2062,0.2042,0.207,0.2046,0.2057,0.2077,0.2153,0.218,0.222,0.2438,0.256,0.2249,0.224,0.2109,0.2179,0.2032,0.2722,0.2601,0.2625,0.2699,0.2583,0,0,0,0,0]},{"header":{"parameterUnit":"m.s-1","parameterCategory":2,"la1":30.2991,"la2":30.254,"lo1":-89.0895,"lo2":-89.0444,"dy":0.0017,"dx":0.0017,"nx":28,"ny":28,"refTime":"2024-02-04T09:00:00:Z","depth":"2","parameterNumber":3,"parameterNumberName":"V-component_of_CURRENTS"},"data":[0,0,0,0,0,0,0,0,0,0,0,0,0,0,0,0,0,0,0,0,0,0,0,0,0,0,0,0,0,0,0,0,0,0,0,0,0,0,0,0,0,0,0,0,0,0,0,0,0,0,0,0,0,0,0,0,0,0,0.0015,0.0015,0,-0.0038,-0.0038,-0.0039,-0.008,-0.008,-0.008,-0.0081,-0.0146,-0.0147,-0.0149,0,0,0,0,0,0,0,0,0,0,0,0,0,0.0033,0.0033,0.0015,0.0015,0.0014,-0.0038,-0.0039,-0.0039,-0.008,-0.008,-0.008,-0.0081,-0.0146,-0.0147,-0.0149,0,0,0,0,0,0,0,0,0,0,0,0,0,0.0006,0.0033,0.0015,-0.0011,-0.0014,-0.0037,-0.0039,-0.004,-0.008,-0.008,-0.008,-0.0081,-0.0145,-0.0147,-0.0149,-0.0155,0,0,-0.0156,-0.0157,0,0,0,0,0,0,0,0,0.0008,0.0005,-0.0007,-0.0009,-0.0013,-0.0051,-0.0056,-0.0079,-0.008,-0.0056,-0.0081,-0.0081,-0.0114,-0.0119,-0.013,-0.0158,-0.0161,-0.0156,-0.0158,-0.0159,-0.0159,0,0,0,0,0,0,0,0.001,0.0007,-0.0007,-0.0007,-0.0011,-0.0037,-0.0041,-0.0061,-0.0084,-0.0058,-0.0061,-0.0065,-0.0116,-0.0128,-0.0132,-0.0162,-0.0156,-0.0158,-0.016,-0.0161,-0.0209,-0.0209,0,0,0,0,0,0,0.0022,0.0009,-0.0005,-0.0009,-0.0002,-0.0037,-0.0041,-0.004,-0.0083,-0.009,-0.0064,-0.0066,-0.0124,-0.0129,-0.0134,-0.0141,-0.0159,-0.0161,-0.0162,-0.0209,-0.0209,-0.0209,0,0,0,0,0,0,0.0023,0.0021,-0.0003,-0.0,-0.0005,-0.0036,-0.0034,-0.004,-0.0052,-0.0088,-0.0095,-0.0069,-0.0124,-0.0131,-0.015,-0.0144,-0.0162,-0.0164,-0.0209,-0.0209,-0.0209,-0.0157,0,0,0,0,0,0,0.0024,0.0022,0.0026,0.0001,-0.0005,-0.001,-0.0034,-0.0041,-0.0053,-0.0056,-0.0094,-0.0101,-0.0125,-0.0146,-0.0152,-0.0148,-0.0166,-0.021,-0.0209,-0.0209,-0.0159,-0.0155,-0.0152,0,0,0,0,0,0.0024,0.0038,0.0026,0.0024,0.0002,-0.0009,-0.0014,-0.0039,-0.0052,-0.0052,-0.008,-0.0099,-0.015,-0.0148,-0.0155,-0.0151,-0.021,-0.0209,-0.0209,-0.016,-0.0156,-0.0152,0,0,0,0,0,0,0.005,0.0035,0.0021,0.003,0.0013,-0.0015,-0.0016,-0.0035,-0.0057,-0.006,-0.0097,-0.0105,-0.0121,-0.0143,-0.014,-0.0166,-0.0184,-0.0185,-0.0144,-0.014,-0.0137,-0.0115,-0.0168,0,0,0,0,0,0.0058,0.0062,0.004,0.0046,0.0041,0.0011,0.0003,-0.0012,-0.0035,-0.0045,-0.0073,-0.0102,-0.0126,-0.0138,-0.0162,-0.0173,-0.0197,-0.0176,-0.0173,-0.017,-0.0158,-0.0196,-0.0194,-0.0209,-0.0209,-0.0209,0,0,0.0069,0.0061,0.0063,0.0051,0.0036,0.0038,0.0005,0.0,0.0001,-0.0048,-0.0056,-0.0091,-0.0127,-0.0141,-0.015,-0.0158,-0.0179,-0.017,-0.0167,-0.0156,-0.0195,-0.0194,-0.0192,-0.0209,-0.0209,-0.0209,0,0,0.0101,0.0088,0.0103,0.0094,0.0078,0.006,0.0061,0.0035,0.0023,0.0008,-0.0027,-0.0056,-0.0092,-0.0117,-0.0134,-0.0126,-0.016,-0.0136,-0.01,-0.0137,-0.0136,-0.0135,-0.0161,-0.0164,-0.0134,-0.0133,-0.0133,0,0.0115,0.0132,0.0105,0.0118,0.0115,0.0075,0.009,0.0074,0.0044,0.0038,0.0014,-0.0043,-0.0079,-0.0094,-0.0096,-0.0117,-0.014,-0.0111,-0.0131,-0.0131,-0.0132,-0.0159,-0.0162,-0.0131,-0.0131,-0.0131,-0.0132,0,0.0157,0.0169,0.0178,0.0179,0.0171,0.0178,0.0153,0.0148,0.0122,0.0096,0.0071,0.0017,-0.0016,-0.0037,-0.0065,-0.0081,-0.0098,-0.0123,-0.0138,-0.0127,-0.0157,-0.0161,-0.0127,-0.0128,-0.0129,-0.013,0,0,0.0197,0.0207,0.0211,0.0225,0.0205,0.0208,0.0213,0.0204,0.0214,0.0164,0.0166,0.0104,0.0065,0.0043,-0.0001,-0.0037,-0.0067,-0.0075,-0.0078,-0.0094,-0.0141,-0.0157,-0.0163,-0.0097,-0.0097,-0.0098,-0.016,0,0.0239,0.0283,0.0268,0.0303,0.0324,0.0292,0.0307,0.0291,0.0259,0.025,0.0184,0.0161,0.0098,0.0083,0.0036,-0.0037,-0.0075,-0.0047,-0.0155,-0.0158,-0.0169,-0.0168,-0.014,-0.0193,-0.0164,-0.0165,-0.0165,0,0.0287,0.0312,0.0355,0.0382,0.0388,0.0399,0.041,0.0414,0.0384,0.0359,0.0311,0.0256,0.0199,0.0142,0.0023,0.0044,-0.004,-0.0104,-0.0109,-0.0142,-0.0182,-0.0202,-0.0202,-0.0172,-0.0172,-0.0171,-0.0171,0,0.0338,0.0374,0.0412,0.0418,0.0437,0.0457,0.0465,0.0449,0.0468,0.0423,0.0425,0.0334,0.0303,0.0185,0.0046,0.0033,-0.0085,-0.0122,-0.0215,-0.0217,-0.0222,-0.0224,-0.0206,-0.0206,-0.0206,-0.0205,-0.0205,0,0.0392,0.0426,0.0444,0.0468,0.0532,0.0514,0.0566,0.0562,0.056,0.0592,0.0485,0.0492,0.0311,0.0221,0.008,-0.0073,-0.0063,-0.0202,-0.0234,-0.0204,-0.0203,-0.0209,-0.0208,-0.0208,-0.0207,-0.0207,-0.0206,0,0.0443,0.0451,0.0506,0.054,0.0559,0.0602,0.0651,0.0686,0.067,0.0709,0.0703,0.0612,0.0491,0.0309,0.0121,-0.0015,-0.0169,-0.0227,-0.0174,-0.0198,-0.0285,-0.0281,-0.0337,-0.0338,-0.0339,-0.034,-0.034,0,0.0473,0.0507,0.0566,0.0607,0.0626,0.0686,0.0737,0.0745,0.0787,0.0794,0.0828,0.0723,0.0673,0.0386,0.0121,-0.0128,-0.0164,-0.0268,-0.0296,-0.0273,-0.0299,-0.0293,-0.0288,-0.0284,-0.0284,-0.0284,-0.0284,0,0.0536,0.0552,0.0598,0.0688,0.0746,0.0819,0.0891,0.0947,0.0967,0.1005,0.1039,0.1,0.0724,0.0476,0.0121,-0.0051,-0.0231,-0.0279,-0.027,-0.0253,-0.0228,-0.0252,-0.0248,-0.0285,-0.0285,-0.0285,-0.0285,-0.0285,0.0581,0.0627,0.0689,0.0776,0.085,0.0947,0.1024,0.1097,0.1192,0.1258,0.1208,0.1162,0.0862,0.0421,0.01,-0.0243,-0.0227,-0.0341,-0.0339,-0.0337,-0.0317,-0.0296,-0.0361,-0.0361,-0.0361,-0.0362,-0.0362,0,0.0639,0.069,0.0773,0.0879,0.0973,0.0998,0.1126,0.1204,0.133,0.1376,0.1401,0.1137,0.0842,0.049,-0.0011,-0.0309,-0.0338,-0.0407,-0.037,-0.0366,-0.0364,-0.0345,-0.0397,-0.0398,-0.0399,-0.04,0,0,0.067,0.0758,0.0802,0.0967,0.1043,0.1176,0.1254,0.1367,0.1437,0.1493,0.147,0.1393,0.0969,0.0607,0.019,-0.0103,-0.0169,-0.0167,-0.0104,-0.0008,-0.0002,-0.029,-0.0252,0,0,0,0,0]}],[{"header":{"parameterUnit":"m.s-1","parameterCategory":2,"la1":30.2991,"la2":30.254,"lo1":-89.0895,"lo2":-89.0444,"dy":0.0017,"dx":0.0017,"nx":28,"ny":28,"refTime":"2024-02-04T09:00:00:Z","depth":"4","parameterNumber":2,"parameterNumberName":"U-component_of_CURRENTS"},"data":[0,0,0,0,0,0,0,0,0,0,0,0,0,0,0,0,0,0,0,0,0,0,0,0,0,0,0,0,0,0,0,0,0,0,0,0,0,0,0,0,0,0,0,0,0,0,0,0,0,0,0,0,0,0,0,0,0,0,0.164,0.1641,0,0.1717,0.1717,0.1718,0.1778,0.1779,0.178,0.178,0.1858,0.186,0.1861,0,0,0,0,0,0,0,0,0,0,0,0,0,0.1534,0.1536,0.164,0.1641,0.1642,0.1717,0.1717,0.1718,0.1778,0.1779,0.178,0.1781,0.1858,0.186,0.1861,0,0,0,0,0,0,0,0,0,0,0,0,0,0.1591,0.1536,0.164,0.1682,0.1687,0.1716,0.1717,0.1719,0.1778,0.1779,0.178,0.1781,0.1857,0.1859,0.1861,0.1851,0,0,0.1868,0.1869,0,0,0,0,0,0,0,0,0.1587,0.1594,0.1675,0.1679,0.1685,0.1741,0.1709,0.1764,0.1777,0.1741,0.178,0.1782,0.182,0.1825,0.1834,0.1855,0.1858,0.1868,0.1869,0.187,0.1871,0,0,0,0,0,0,0,0.1583,0.1591,0.1668,0.1676,0.1682,0.1694,0.1703,0.1719,0.1771,0.1744,0.1749,0.1761,0.1822,0.1832,0.1836,0.1859,0.1868,0.187,0.1871,0.1872,0.1984,0.1986,0,0,0,0,0,0,0.1577,0.1587,0.1666,0.1671,0.164,0.1695,0.1705,0.172,0.1772,0.1781,0.176,0.1763,0.1828,0.1834,0.1839,0.1927,0.187,0.1872,0.1873,0.1982,0.1985,0.1986,0,0,0,0,0,0,0.1575,0.1584,0.1663,0.1632,0.1643,0.1696,0.1712,0.1721,0.1767,0.1783,0.1793,0.1801,0.1829,0.1836,0.1889,0.1927,0.1873,0.1875,0.198,0.1983,0.1985,0.2041,0,0,0,0,0,0,0.1571,0.1582,0.1606,0.1632,0.1645,0.1703,0.1711,0.1722,0.1771,0.1777,0.1821,0.1828,0.183,0.1886,0.1891,0.1929,0.1876,0.1978,0.1982,0.1985,0.2037,0.2045,0.2052,0,0,0,0,0,0.1567,0.159,0.1607,0.1617,0.1671,0.1705,0.1713,0.1752,0.1772,0.1797,0.1832,0.1828,0.1911,0.1889,0.1895,0.1934,0.1977,0.1981,0.1984,0.2033,0.2044,0.2052,0,0,0,0,0,0,0.1556,0.1599,0.1618,0.1654,0.1689,0.1716,0.1749,0.1771,0.1817,0.1836,0.1848,0.1857,0.1919,0.1918,0.1894,0.1977,0.1944,0.1949,0.198,0.1989,0.1997,0.1999,0.1878,0,0,0,0,0,0.1564,0.1597,0.1632,0.1666,0.1686,0.1724,0.1749,0.1776,0.1812,0.1836,0.1865,0.19,0.1932,0.1955,0.1981,0.2022,0.2026,0.2052,0.206,0.2066,0.2074,0.2108,0.2119,0.1999,0.1999,0.1999,0,0,0.1569,0.1599,0.1619,0.1667,0.17,0.1733,0.1743,0.1794,0.183,0.1835,0.1905,0.1931,0.1951,0.2003,0.203,0.2011,0.2106,0.2071,0.2077,0.2081,0.2113,0.2125,0.2135,0.2002,0.2002,0.2001,0,0,0.1584,0.1625,0.1655,0.1688,0.1744,0.1765,0.1787,0.1835,0.1873,0.193,0.1949,0.1999,0.2045,0.207,0.2085,0.2149,0.2147,0.2164,0.2204,0.2238,0.2248,0.2256,0.2285,0.2296,0.2165,0.2165,0.2165,0,0.1592,0.1633,0.1669,0.1705,0.174,0.1782,0.1819,0.1858,0.192,0.1956,0.1964,0.2055,0.2075,0.2135,0.2164,0.2167,0.2185,0.2165,0.2247,0.2256,0.2264,0.2291,0.2302,0.2168,0.2168,0.2168,0.2167,0,0.1618,0.1665,0.1689,0.1748,0.1787,0.183,0.1881,0.1934,0.1982,0.2016,0.2101,0.213,0.2184,0.2201,0.2205,0.2278,0.2273,0.2253,0.222,0.2279,0.2304,0.2315,0.2173,0.2172,0.2171,0.217,0,0,0.1595,0.1689,0.1701,0.1738,0.1818,0.1845,0.192,0.1989,0.2043,0.2107,0.2173,0.2239,0.2265,0.2285,0.2301,0.2332,0.2409,0.2326,0.2326,0.2349,0.2491,0.2349,0.2347,0.2407,0.2409,0.2411,0.2489,0,0.1609,0.1675,0.1724,0.1794,0.1831,0.19,0.196,0.2032,0.2098,0.2171,0.2223,0.2292,0.2294,0.2333,0.2368,0.2405,0.2439,0.239,0.2436,0.2437,0.2299,0.2355,0.2417,0.2496,0.2499,0.2501,0.2502,0,0.1612,0.166,0.173,0.1821,0.1845,0.1898,0.2004,0.2066,0.2174,0.2228,0.2307,0.235,0.2434,0.2411,0.2505,0.2478,0.2497,0.2509,0.2512,0.2365,0.2314,0.2425,0.2521,0.2519,0.2518,0.2517,0.2515,0,0.1562,0.1659,0.1717,0.175,0.1858,0.1916,0.1983,0.2092,0.2159,0.2279,0.2339,0.2425,0.2489,0.2529,0.2577,0.2555,0.2658,0.2621,0.2508,0.2498,0.2578,0.2567,0.2675,0.2675,0.2675,0.2675,0.2674,0,0.1539,0.1589,0.1706,0.1737,0.1812,0.1901,0.1995,0.2075,0.2198,0.2267,0.2373,0.2435,0.2525,0.2593,0.2609,0.2597,0.269,0.2525,0.2509,0.26,0.2592,0.2585,0.2574,0.2677,0.2677,0.2676,0.2676,0,0.1472,0.1552,0.1623,0.1748,0.1794,0.1852,0.2002,0.2058,0.2193,0.229,0.2337,0.2478,0.2559,0.2627,0.2697,0.2629,0.2633,0.2603,0.2716,0.2704,0.2443,0.2434,0.2474,0.247,0.2466,0.2463,0.246,0,0.1441,0.1474,0.1615,0.166,0.1727,0.183,0.1893,0.204,0.2099,0.2292,0.232,0.2463,0.2532,0.2525,0.2605,0.2621,0.2589,0.257,0.2482,0.2442,0.2424,0.2421,0.2417,0.2455,0.2454,0.2453,0.2452,0,0.1377,0.1444,0.1501,0.1596,0.1675,0.1748,0.1855,0.1886,0.2041,0.2182,0.2246,0.2296,0.2382,0.243,0.2464,0.247,0.2567,0.2531,0.2537,0.2454,0.2419,0.2404,0.2404,0.2439,0.2441,0.2442,0.2443,0,0.1332,0.1353,0.1439,0.1511,0.1599,0.1638,0.171,0.1777,0.1856,0.2053,0.2071,0.2223,0.2353,0.2355,0.2391,0.2383,0.2338,0.2246,0.2266,0.2281,0.2181,0.2106,0.2024,0,0,0,0,0,0.1271,0.1286,0.1345,0.1411,0.1491,0.1548,0.1664,0.1736,0.188,0.1868,0.1963,0.203,0.2091,0.2182,0.2134,0.2313,0.235,0.2248,0.2255,0.2368,0.2383,0.2282,0,0,0,0,0,0,0.1229,0.1278,0.1304,0.1311,0.1337,0.141,0.148,0.1583,0.1586,0.1741,0.1788,0.1907,0.2001,0.2093,0.2095,0.2119,0.2082,0.2344,0.2339,0.236,0.2373,0.2385,0.2287,0,0,0,0,0]},{"header":{"parameterUnit":"m.s-1","parameterCategory":2,"la1":30.2991,"la2":30.254,"lo1":-89.0895,"lo2":-89.0444,"dy":0.0017,"dx":0.0017,"nx":28,"ny":28,"refTime":"2024-02-04T09:00:00:Z","depth":"4","parameterNumber":3,"parameterNumberName":"V-component_of_CURRENTS"},"data":[0,0,0,0,0,0,0,0,0,0,0,0,0,0,0,0,0,0,0,0,0,0,0,0,0,0,0,0,0,0,0,0,0,0,0,0,0,0,0,0,0,0,0,0,0,0,0,0,0,0,0,0,0,0,0,0,0,0,0.0116,0.0116,0,0.0077,0.0077,0.0076,0.0048,0.0048,0.0048,0.0048,-0.0002,-0.0003,-0.0005,0,0,0,0,0,0,0,0,0,0,0,0,0,0.0132,0.0132,0.0117,0.0116,0.0116,0.0077,0.0077,0.0076,0.0048,0.0048,0.0048,0.0048,-0.0002,-0.0003,-0.0005,0,0,0,0,0,0,0,0,0,0,0,0,0,0.0111,0.0132,0.0117,0.0098,0.0096,0.0077,0.0077,0.0076,0.0048,0.0048,0.0048,0.0048,-0.0001,-0.0003,-0.0005,-0.0013,0,0,-0.0011,-0.0011,0,0,0,0,0,0,0,0,0.0113,0.0111,0.0101,0.0099,0.0097,0.0068,0.0064,0.0046,0.0048,0.0065,0.0048,0.0048,0.0021,0.0018,0.0009,-0.0015,-0.0017,-0.0011,-0.0012,-0.0013,-0.0013,0,0,0,0,0,0,0,0.0114,0.0112,0.01,0.0101,0.0098,0.008,0.0077,0.006,0.0044,0.0064,0.0062,0.0059,0.002,0.0011,0.0008,-0.0018,-0.0011,-0.0012,-0.0013,-0.0014,-0.0055,-0.0055,0,0,0,0,0,0,0.0123,0.0114,0.0101,0.0099,0.0106,0.008,0.0076,0.0077,0.0044,0.0039,0.006,0.0058,0.0014,0.001,0.0006,0.0003,-0.0013,-0.0014,-0.0015,-0.0055,-0.0055,-0.0055,0,0,0,0,0,0,0.0124,0.0123,0.0103,0.0106,0.0102,0.008,0.0081,0.0076,0.0069,0.0041,0.0036,0.0057,0.0014,0.0008,-0.0005,0.0,-0.0015,-0.0017,-0.0055,-0.0055,-0.0055,-0.0008,0,0,0,0,0,0,0.0125,0.0123,0.0127,0.0107,0.0102,0.0098,0.0081,0.0076,0.0068,0.0066,0.0038,0.0033,0.0013,-0.0002,-0.0007,-0.0002,-0.0018,-0.0055,-0.0055,-0.0055,-0.001,-0.0006,-0.0004,0,0,0,0,0,0.0125,0.0135,0.0128,0.0126,0.0109,0.0098,0.0095,0.0077,0.0069,0.0069,0.0049,0.0034,-0.0006,-0.0004,-0.0009,-0.0005,-0.0055,-0.0055,-0.0055,-0.0011,-0.0007,-0.0004,0,0,0,0,0,0,0.0145,0.0133,0.0124,0.013,0.0117,0.0094,0.0095,0.0081,0.0065,0.0064,0.0035,0.0029,0.0018,-0.0001,0.0002,-0.0018,-0.0034,-0.0035,0.0002,0.0005,0.0008,0.0026,-0.002,0,0,0,0,0,0.0151,0.0155,0.0138,0.0143,0.0139,0.0117,0.0111,0.0099,0.0082,0.0075,0.0054,0.0031,0.0013,0.0004,-0.0015,-0.0024,-0.0047,-0.0026,-0.0023,-0.002,-0.001,-0.0042,-0.0041,-0.0055,-0.0055,-0.0055,0,0,0.016,0.0154,0.0157,0.0147,0.0136,0.0137,0.0113,0.0109,0.0112,0.0073,0.0069,0.0042,0.0013,0.0002,-0.0004,-0.0011,-0.003,-0.002,-0.0018,-0.0009,-0.0042,-0.0041,-0.0039,-0.0055,-0.0055,-0.0055,0,0,0.0185,0.0176,0.0188,0.0181,0.017,0.0156,0.0157,0.0136,0.0129,0.012,0.0093,0.0071,0.0043,0.0024,0.0011,0.0019,-0.0014,0.0008,0.004,0.0009,0.001,0.0011,-0.002,-0.0022,0.0011,0.0011,0.0011,0,0.0196,0.0209,0.019,0.0199,0.0198,0.0168,0.018,0.0169,0.0146,0.0143,0.0126,0.0082,0.0055,0.0045,0.0045,0.0027,0.0003,0.0031,0.0014,0.0014,0.0014,-0.0018,-0.0021,0.0013,0.0013,0.0013,0.0013,0,0.0227,0.0238,0.0245,0.0247,0.0241,0.0247,0.0229,0.0228,0.0211,0.019,0.0174,0.0134,0.0109,0.0092,0.0071,0.0059,0.0039,0.0021,0.0008,0.0019,-0.0016,-0.002,0.0017,0.0016,0.0015,0.0015,0,0,0.0253,0.0266,0.0269,0.0283,0.0269,0.0272,0.0279,0.0274,0.0283,0.0247,0.0251,0.0206,0.0176,0.016,0.0125,0.0097,0.0069,0.0063,0.006,0.004,-0.0001,-0.0014,-0.002,0.0046,0.0046,0.0046,-0.0026,0,0.0284,0.0319,0.0311,0.0342,0.0358,0.0339,0.0354,0.0344,0.032,0.0314,0.0268,0.0252,0.0204,0.0194,0.0157,0.0094,0.0061,0.009,-0.0013,-0.0016,-0.0024,-0.0024,0.0045,-0.0029,-0.003,-0.0031,-0.0031,0,0.0317,0.0338,0.0375,0.0404,0.041,0.0422,0.0436,0.0444,0.0423,0.0405,0.037,0.0325,0.0283,0.0241,0.0138,0.0158,0.0086,0.0031,0.0027,-0.0002,-0.0037,-0.0042,-0.0039,-0.0039,-0.0038,-0.0037,-0.0037,0,0.0348,0.0383,0.0418,0.0425,0.0448,0.0469,0.0482,0.0472,0.0491,0.046,0.046,0.0388,0.0364,0.0266,0.0147,0.0142,0.003,0.0006,-0.0074,-0.0077,-0.0064,-0.0064,-0.0066,-0.0066,-0.0066,-0.0065,-0.0065,0,0.0382,0.0413,0.0441,0.0462,0.052,0.0514,0.0562,0.0563,0.0567,0.0588,0.0512,0.0508,0.0369,0.0285,0.0169,0.0037,0.0043,-0.0066,-0.0094,-0.0044,-0.004,-0.0067,-0.0066,-0.0068,-0.0067,-0.0067,-0.0066,0,0.041,0.0426,0.0476,0.0516,0.0538,0.0578,0.0633,0.0661,0.0655,0.0681,0.0678,0.06,0.0486,0.0338,0.0176,0.0074,-0.0056,-0.0106,-0.0036,-0.006,-0.0149,-0.0145,-0.0201,-0.0202,-0.0202,-0.0203,-0.0204,0,0.0425,0.0454,0.0521,0.0559,0.0582,0.0643,0.0689,0.0709,0.0737,0.0737,0.0754,0.0659,0.0584,0.0358,0.0189,-0.0038,-0.0075,-0.0147,-0.0154,-0.014,-0.0162,-0.0157,-0.0152,-0.0205,-0.0205,-0.0206,-0.0206,0,0.0458,0.0482,0.0524,0.0608,0.0664,0.0733,0.0796,0.0827,0.0846,0.0844,0.0817,0.0692,0.0562,0.0368,0.0188,0.0026,-0.0102,-0.0157,-0.0156,-0.0163,-0.0146,-0.0166,-0.016,-0.0209,-0.0208,-0.0208,-0.0208,0,0.0483,0.0519,0.0577,0.065,0.0728,0.0798,0.0829,0.0865,0.0898,0.0889,0.088,0.0733,0.0647,0.0401,0.024,0.0072,0.0023,-0.0036,-0.0043,-0.0042,0.0017,0.0063,0.0045,0,0,0,0,0,0.0503,0.0544,0.0614,0.0694,0.0772,0.082,0.0891,0.091,0.0932,0.0923,0.0903,0.078,0.0536,0.0438,0.0268,0.0207,-0.0017,-0.0,-0.0091,-0.0225,-0.0222,-0.0181,0,0,0,0,0,0,0.0514,0.058,0.0614,0.0719,0.0777,0.0867,0.0914,0.0927,0.0925,0.0919,0.08,0.0733,0.0503,0.0637,0.0266,0.0214,0.0131,-0.0112,-0.0116,-0.0227,-0.0224,-0.0221,-0.0179,0,0,0,0,0]}]]